Regional Weather Roundup
Issued by NWS

Home | Current Version | Previous Version | Graphics & Text | Print | Product List | Glossary On
Versions: 1 2 3 4 5 6 7 8 9 10 11 12 13 14 15 16 17 18 19 20 21 22 23 24 25 26 27 28 29 30 31 32 33 34 35 36 37 38 39 40 41 42 43 44 45 46 47 48 49 50
000
ASUS45 KBOI 251310
RWRID
WEATHER ROUNDUP FOR IDAHO
NATIONAL WEATHER SERVICE BOISE ID
700 AM MDT SAT APR 25 2015

NOTE: "FAIR" INDICATES FEW OR NO CLOUDS BELOW 12000 FEET
WITH NO SIGNIFICANT WEATHER AND/OR OBSTRUCTIONS TO VISIBILITY

IDZ012-014-251400-
SOUTHWEST IDAHO


CITY           SKY/WX    TMP DP  RH WIND       PRES   REMARKS
BOISE          CLOUDY    42  34  73 CALM      29.80S
CALDWELL       MOCLDY    41  27  56 W7        29.82S
MOUNTAIN HOME  MOCLDY    37  31  79 W5        29.80R WCI  33
$$

IDZ016-017-251400-
SOUTHCENTRAL IDAHO


CITY           SKY/WX    TMP DP  RH WIND       PRES   REMARKS
BURLEY         PTCLDY    38  30  73 S9        29.79S WCI  31
JEROME         PTCLDY    36  30  79 S5        29.80S WCI  32
TWIN FALLS     CLEAR     37  29  72 S10       29.80S WCI  30
$$

IDZ019>023-251400-
SOUTHEAST IDAHO


CITY           SKY/WX    TMP DP  RH WIND       PRES   REMARKS
IDAHO FALLS    CLOUDY    40  32  73 SW13      29.80R WCI  32
POCATELLO      MOCLDY    39  32  76 SW16      29.82R WCI  30
REXBURG        CLOUDY    37  35  92 S8        29.79R WCI  31
$$

IDZ006-010-011-018-031-032-251400-
CENTRAL IDAHO MOUNTAINS


CITY           SKY/WX    TMP DP  RH WIND       PRES   REMARKS
MCCALL         CLOUDY    31  28  89 CALM      29.77S
HAILEY         PTCLDY    30  28  93 CALM      29.79S
STANLEY          N/A     26  22  84 CALM      29.78R
SALMON         MOCLDY    30  27  86 CALM      29.81R
CHALLIS        CLOUDY    31  26  82 SE6       29.79R WCI  25
$$

IDZ002-004-006-007-026-251400-
NORTHERN IDAHO


CITY           SKY/WX    TMP DP  RH WIND       PRES   REMARKS
LEWISTON       PTCLDY    37  31  78 CALM      29.86R
LOWELL           N/A     37  35  92 CALM      29.90R
COEUR D`ALENE  MOCLDY    39  32  75 S8        29.85S WCI  34
MULLAN PASS    CLOUDY    29  22  75 CALM      29.78S
$$


USA.gov is the U.S. government's official web portal to all federal, state and local government web resources and services.